Flag for U.S.A. Weather past 2 weeks in Flint, Michigan, U.S.A.

Now
66 °F

Scattered clouds.


Feels Like: 66 °F
Forecast: 52 / 76 °F
Wind: 7 mph from Southwest

Location: Bishop International Airport

Current Time: Jul 30, 2014 at 9:56:51 PM

Latest Report: Jul 30, 2014 at 8:53 PM


Visibility: 10 mi

Pressure: 29.97 "Hg

Humidity: 75%

Dew point: 58 °F

Location of FlintLocation

Historic Weather in Flint — Graph

°F

Flint temperature yesterday

Maximum temperature yesterday: 72 °F (at 2:53 PM)
Minimum temperature yesterday: 50 °F (at 5:53 AM)
Average temperature yesterday: 61 °F

Past Weeks' High & Low Weather Summary

 TemperatureHumidityPressure
High86 °F (Jul 21, 3:53 PM)93% (Jul 21, 3:53 AM)30.24 "Hg (Jul 21, 3:53 AM)
Low50 °F (Jul 29, 5:53 AM)36% (Jul 18, 2:53 PM)29.61 "Hg (Jul 27, 3:53 PM)
Average67 °F67%30.00 "Hg
* Reported Jul 15 7:53 PM — Jul 30 7:53 PM, Flint, Weather by CustomWeather, © 2014

Note: Actual official high and low records may vary slightly from our data, if they occured in-between our weather recording intervals... More about our weather records

Advertising

Flint weather history for previous 24 hours

 ConditionsComfort  
Time TempWeatherWind HumidityBarometerVisibility
7:53 PM
Jul 30
69 °FSunny.3 mph63%29.97 "Hg10 mi
6:53 PM72 °FPartly sunny.No wind57%29.97 "Hg10 mi
5:53 PM73 °FPartly sunny.3 mph55%29.97 "Hg10 mi
4:53 PM70 °FOvercast.7 mph59%29.98 "Hg10 mi
3:53 PM72 °FOvercast.7 mph55%29.98 "Hg10 mi
2:53 PM71 °FScattered clouds.6 mph57%29.99 "Hg10 mi
1:53 PM68 °FBroken clouds.7 mph68%30.00 "Hg10 mi
12:53 PM70 °FBroken clouds.6 mph61%30.01 "Hg10 mi
11:53 AM69 °FBroken clouds.5 mph63%30.01 "Hg10 mi
10:53 AM65 °FScattered clouds.No wind78%30.01 "Hg10 mi
9:53 AM61 °FLight rain. More clouds than sun.No wind83%30.01 "Hg7 mi
8:53 AM60 °FOvercast.No wind86%30.00 "Hg8 mi
7:53 AM58 °FMostly cloudy.5 mph90%29.99 "Hg7 mi
6:53 AM54 °FFog.No wind93%29.98 "Hg4 mi
5:53 AM55 °FFog.5 mph90%29.98 "Hg6 mi
4:53 AM56 °FFog.No wind90%29.96 "Hg6 mi
3:53 AM57 °FClear.5 mph90%29.96 "Hg8 mi
2:53 AM57 °FClear.6 mph90%29.96 "Hg8 mi
2:01 AM56 °FFog.3 mph93%29.96 "Hg2 mi
1:00 AM59 °FFog.3 mph90%29.96 "Hg2 mi
11:53 PM
Jul 29
60 °FClear.No wind86%29.97 "Hg10 mi
10:53 PM61 °FPassing clouds.6 mph87%29.97 "Hg10 mi
9:53 PM62 °FLight rain. Overcast.6 mph86%29.97 "Hg10 mi
Weather by CustomWeather, © 2014

See weather overviewHow to use our weather pages